• în România
  • Lista ţărilor
  • Pe 7 zile
  • Temperatura apei
  • Hartă satelitară
  • Meteo pe hartă
  • Widget-uri
  • user-avatar
    Intrare

    Meteo pe oră la Dolany

    Astăzi, 21 Octombrie, Duminică

    Timp Temperatura Precipitaţii Vânt Presiune Umiditate
    00:00 +7°C° 0 mm 3 m/s 738 mmHg 82%
    01:00 +5°C° 0 mm 3 m/s 738 mmHg 84%
    02:00 +6°C° 0.1 mm 2 m/s 738 mmHg 86%
    03:00 +6°C° 0.1 mm 2 m/s 738 mmHg 88%
    04:00 +6°C° 0.1 mm 2 m/s 738 mmHg 91%
    05:00 +6°C° 0.1 mm 2 m/s 738 mmHg 90%
    06:00 +6°C° 0.1 mm 2 m/s 738 mmHg 90%
    07:00 +7°C° 0.1 mm 3 m/s 738 mmHg 89%
    08:00 +7°C° 0.2 mm 3 m/s 739 mmHg 88%
    09:00 +7°C° 0.2 mm 3 m/s 739 mmHg 87%
    10:00 +8°C° 0.2 mm 3 m/s 739 mmHg 86%
    11:00 +8°C° 0 mm 3 m/s 739 mmHg 82%
    12:00 +9°C° 0 mm 3 m/s 739 mmHg 79%
    13:00 +10°C° 0 mm 3 m/s 739 mmHg 75%
    14:00 +10°C° 0 mm 2 m/s 739 mmHg 74%
    15:00 +10°C° 0 mm 2 m/s 739 mmHg 74%
    16:00 +10°C° 0 mm 2 m/s 739 mmHg 73%
    17:00 +9°C° 0 mm 2 m/s 739 mmHg 76%
    18:00 +8°C° 0 mm 2 m/s 740 mmHg 79%
    19:00 +7°C° 0 mm 2 m/s 740 mmHg 82%
    20:00 +8°C° 0 mm 1 m/s 740 mmHg 84%
    21:00 +7°C° 0 mm 1 m/s 740 mmHg 85%
    22:00 +7°C° 0 mm 1 m/s 740 mmHg 87%
    23:00 +6°C° 0 mm 1 m/s 740 mmHg 88%

    Mâine, 22 Octombrie, Luni

    Timp Temperatura Precipitaţii Vânt Presiune Umiditate
    00:00 +6°C° 0 mm 1 m/s 740 mmHg 88%
    01:00 +6°C° 0 mm 1 m/s 740 mmHg 89%
    02:00 +6°C° 0 mm 1 m/s 740 mmHg 89%
    03:00 +4°C° 0 mm 0 m/s 739 mmHg 89%
    04:00 +4°C° 0 mm 0 m/s 739 mmHg 89%
    05:00 +4°C° 0 mm 0 m/s 739 mmHg 88%
    06:00 +4°C° 0 mm 0 m/s 739 mmHg 87%
    07:00 +5°C° 0 mm 1 m/s 739 mmHg 86%
    08:00 +8°C° 0 mm 1 m/s 739 mmHg 77%
    09:00 +9°C° 0 mm 0 m/s 739 mmHg 68%
    10:00 +11°C° 0 mm 0 m/s 740 mmHg 59%
    11:00 +13°C° 0 mm 1 m/s 739 mmHg 56%
    12:00 +14°C° 0 mm 1 m/s 739 mmHg 53%
    13:00 +14°C° 0 mm 1 m/s 738 mmHg 50%
    14:00 +14°C° 0 mm 1 m/s 738 mmHg 54%
    15:00 +13°C° 0 mm 1 m/s 738 mmHg 57%
    16:00 +12°C° 0 mm 1 m/s 737 mmHg 61%
    17:00 +11°C° 0 mm 1 m/s 737 mmHg 65%
    18:00 +10°C° 0 mm 1 m/s 737 mmHg 70%
    19:00 +8°C° 0 mm 1 m/s 738 mmHg 74%
    20:00 +7°C° 0 mm 2 m/s 738 mmHg 76%
    21:00 +7°C° 0 mm 2 m/s 738 mmHg 77%
    22:00 +7°C° 0 mm 2 m/s 738 mmHg 78%
    23:00 +7°C° 0.4 mm 2 m/s 738 mmHg 80%

    Poimâine, 23 Octombrie, Marţi

    Timp Temperatura Precipitaţii Vânt Presiune Umiditate
    00:00 +8°C° 0.4 mm 3 m/s 738 mmHg 83%
    01:00 +8°C° 0.4 mm 3 m/s 738 mmHg 85%
    02:00 +7°C° 0.2 mm 3 m/s 738 mmHg 85%
    03:00 +7°C° 0.2 mm 3 m/s 738 mmHg 86%
    04:00 +5°C° 0.2 mm 3 m/s 737 mmHg 86%
    05:00 +5°C° 0 mm 3 m/s 737 mmHg 88%
    06:00 +4°C° 0 mm 3 m/s 737 mmHg 90%
    07:00 +4°C° 0 mm 2 m/s 737 mmHg 91%
    08:00 +4°C° 0 mm 3 m/s 737 mmHg 84%
    09:00 +5°C° 0 mm 3 m/s 737 mmHg 77%
    10:00 +7°C° 0 mm 4 m/s 737 mmHg 70%
    11:00 +7°C° 0 mm 4 m/s 736 mmHg 65%
    12:00 +8°C° 0 mm 4 m/s 735 mmHg 61%
    13:00 +8°C° 0 mm 5 m/s 734 mmHg 57%
    14:00 +8°C° 0.1 mm 5 m/s 733 mmHg 59%
    15:00 +8°C° 0.1 mm 6 m/s 732 mmHg 61%
    16:00 +7°C° 0.1 mm 6 m/s 731 mmHg 63%
    17:00 +6°C° 0.4 mm 7 m/s 730 mmHg 66%
    18:00 +6°C° 0.4 mm 7 m/s 729 mmHg 69%
    19:00 +5°C° 0.4 mm 8 m/s 728 mmHg 73%
    20:00 +6°C° 0.6 mm 9 m/s 727 mmHg 74%
    21:00 +6°C° 0.6 mm 9 m/s 725 mmHg 76%
    22:00 +7°C° 0.6 mm 9 m/s 724 mmHg 78%
    23:00 +7°C° 1.2 mm 9 m/s 724 mmHg 79%

    24 Octombrie, Miercuri

    Timp Temperatura Precipitaţii Vânt Presiune Umiditate
    00:00 +7°C° 1.2 mm 9 m/s 723 mmHg 80%
    01:00 +8°C° 1.2 mm 9 m/s 722 mmHg 82%
    02:00 +7°C° 0.7 mm 9 m/s 722 mmHg 79%
    03:00 +7°C° 0.7 mm 9 m/s 722 mmHg 76%
    04:00 +6°C° 0.7 mm 9 m/s 722 mmHg 74%
    05:00 +5°C° 0.3 mm 9 m/s 723 mmHg 73%
    06:00 +3°C° 0.3 mm 9 m/s 723 mmHg 72%
    07:00 +2°C° 0.3 mm 9 m/s 724 mmHg 70%
    08:00 +3°C° 0.3 mm 9 m/s 724 mmHg 66%
    09:00 +3°C° 0.3 mm 9 m/s 725 mmHg 62%
    10:00 +3°C° 0.3 mm 9 m/s 725 mmHg 57%
    11:00 +3°C° 0.1 mm 9 m/s 725 mmHg 55%
    12:00 +3°C° 0.1 mm 9 m/s 725 mmHg 52%
    13:00 +5°C° 0.1 mm 9 m/s 726 mmHg 49%
    14:00 +4°C° 0.1 mm 8 m/s 726 mmHg 51%
    15:00 +4°C° 0.1 mm 8 m/s 726 mmHg 53%
    16:00 +4°C° 0.1 mm 7 m/s 726 mmHg 55%
    17:00 +3°C° 0.1 mm 7 m/s 727 mmHg 58%
    18:00 +3°C° 0.1 mm 6 m/s 727 mmHg 60%
    19:00 +2°C° 0.1 mm 6 m/s 728 mmHg 62%
    20:00 +2°C° 0 mm 5 m/s 728 mmHg 64%
    21:00 +2°C° 0 mm 5 m/s 728 mmHg 66%
    22:00 +1°C° 0 mm 5 m/s 729 mmHg 68%
    23:00 +1°C° 0 mm 5 m/s 729 mmHg 71%

    25 Octombrie, Joi

    Timp Temperatura Precipitaţii Vânt Presiune Umiditate
    00:00 +1°C° 0 mm 5 m/s 729 mmHg 73%
    01:00 +1°C° 0 mm 5 m/s 729 mmHg 76%
    02:00 +1°C° 0 mm 5 m/s 729 mmHg 77%
    03:00 0°C° 0 mm 4 m/s 729 mmHg 79%
    04:00 0°C° 0 mm 4 m/s 730 mmHg 81%
    05:00 +1°C° 0 mm 4 m/s 729 mmHg 81%
    06:00 +1°C° 0 mm 4 m/s 729 mmHg 82%
    07:00 +3°C° 0 mm 4 m/s 729 mmHg 82%
    08:00 +3°C° 0.4 mm 4 m/s 729 mmHg 83%
    09:00 +4°C° 0.4 mm 4 m/s 728 mmHg 83%
    10:00 +3°C° 0.4 mm 5 m/s 728 mmHg 83%
    11:00 +6°C° 0.9 mm 5 m/s 728 mmHg 85%
    12:00 +7°C° 0.9 mm 6 m/s 727 mmHg 87%
    13:00 +8°C° 0.9 mm 6 m/s 727 mmHg 89%
    14:00 +8°C° 0.4 mm 6 m/s 727 mmHg 87%
    15:00 +8°C° 0.4 mm 6 m/s 727 mmHg 86%
    16:00 +8°C° 0.4 mm 6 m/s 727 mmHg 84%
    17:00 +8°C° 0.1 mm 6 m/s 727 mmHg 85%
    18:00 +8°C° 0.1 mm 5 m/s 728 mmHg 86%
    19:00 +7°C° 0.1 mm 5 m/s 728 mmHg 87%
    20:00 +7°C° 0.1 mm 5 m/s 728 mmHg 88%
    21:00 +7°C° 0.1 mm 5 m/s 728 mmHg 88%
    22:00 +7°C° 0.1 mm 5 m/s 729 mmHg 88%
    23:00 +7°C° 0.1 mm 4 m/s 729 mmHg 89%

    26 Octombrie, Vineri

    Timp Temperatura Precipitaţii Vânt Presiune Umiditate
    00:00 +7°C° 0.1 mm 4 m/s 729 mmHg 90%
    01:00 +7°C° 0.1 mm 4 m/s 729 mmHg 90%
    02:00 +7°C° 0 mm 4 m/s 729 mmHg 90%
    03:00 +7°C° 0 mm 4 m/s 729 mmHg 90%
    04:00 +7°C° 0 mm 4 m/s 728 mmHg 89%
    05:00 +7°C° 0 mm 4 m/s 728 mmHg 89%
    06:00 +8°C° 0 mm 3 m/s 728 mmHg 89%
    07:00 +7°C° 0 mm 3 m/s 728 mmHg 89%
    08:00 +8°C° 0 mm 3 m/s 728 mmHg 84%
    09:00 +8°C° 0 mm 4 m/s 728 mmHg 80%
    10:00 +10°C° 0 mm 4 m/s 728 mmHg 75%
    11:00 +11°C° 0 mm 4 m/s 728 mmHg 72%
    12:00 +10°C° 0 mm 5 m/s 728 mmHg 70%
    13:00 +12°C° 0 mm 5 m/s 727 mmHg 67%
    14:00 +11°C° 0 mm 4 m/s 727 mmHg 70%
    15:00 +11°C° 0 mm 4 m/s 726 mmHg 73%
    16:00 +10°C° 0 mm 3 m/s 726 mmHg 76%
    17:00 +9°C° 0 mm 3 m/s 726 mmHg 79%
    18:00 +9°C° 0 mm 3 m/s 725 mmHg 83%
    19:00 +8°C° 0 mm 2 m/s 725 mmHg 86%
    20:00 +8°C° 0 mm 2 m/s 725 mmHg 87%
    21:00 +8°C° 0 mm 2 m/s 724 mmHg 88%
    22:00 +8°C° 0 mm 2 m/s 724 mmHg 89%
    23:00 +8°C° 0 mm 2 m/s 724 mmHg 89%
    Arată mai mult